Location: Shepherdstown, WV
(39.4326°N, 77.8042°W)
Time: 18:27:06
(UTC-04:00)

X-37B - Pass Details

Date: 01 July 2021
Orbit: 383 x 392 km, 45.0° (Epoch: 01 July)

Event Time Altitude Azimuth Distance (km) Brightness Sun altitude
Rises 22:56:09 0° 295° (WNW) 2,258 5.5 -19.6°
Reaches altitude 10° 22:58:14 10° 299° (WNW) 1,402 4.3 -19.8°
Maximum altitude 23:01:21 60° 21° (NNE) 441 0.9 -20.1°
Enters shadow 23:01:23 60° 23° (NNE) 441 0.9 -20.1°
